Terminal Aerodrome Forecast
Issued by NWS Newport/Morehead City, NC

Home | Current Version | Previous Version | Graphics & Text | Print | Product List | Glossary On
Versions: 1 2 3 4 5 6 7 8 9 10 11 12 13 14 15 16 17 18
000
FTUS42 KMHX 271700
TAFEWN
TAF
KEWN 271730Z 2718/2818 05008KT P6SM SCT030
      TEMPO 2718/2719 BKN030
     FM280800 VRB03KT 3/4SM BR OVC003
     FM281300 05008KT P6SM SCT030=

USA.gov is the U.S. government's official web portal to all federal, state and local government web resources and services.